RH
25 25 38 54 68 78 84 88 88 92 93 88 82 79 71 63 62 64 60 56 57 52 48 48 50 56 54 47 40 37 41 42 42 42 42 41 46 52 60 73 74 68 66 67 72 77 77 79 81 80 75 72 72 71 67 64 61 59 63 63 60 61 57 45 34 24 21 20 18 18 19 18 16 14 14 14 14 13 14 15 17 18 16 17 15 15 22 26
27 24 35 46 52 66 81 86 87 91 94 93 85 78 70 66 70 65 60 64 62 56 53 50 55 59 57 53 44 40 41 41 42 42 41 41 45 49 57 72 78 70 65 65 67 72 76 77 80 80 79 77 76 74 70 64 61 62 64 62 62 65 56 44 35 25 22 19 17 18 18 18 16 14 15 15 15 16 17 17 18 19 18 17 16 15 22 25
32 26 34 44 45 57 78 86 86 88 92 93 88 83 75 71 76 68 63 70 65 57 54 52 57 58 59 57 48 44 43 41 40 39 38 42 45 47 54 69 76 71 66 65 65 68 72 75 79 80 79 80 79 77 73 66 62 61 62 63 64 64 56 43 35 28 22 19 18 18 18 18 16 14 15 15 17 21 20 17 17 19 17 16 17 16 21 25
40 29 30 37 42 53 74 85 84 86 92 91 90 91 85 80 82 75 67 70 69 62 54 54 58 58 59 57 51 47 45 43 38 34 36 41 46 46 52 65 76 75 70 68 64 66 69 74 80 81 80 81 82 80 75 69 64 61 61 65 64 62 57 43 35 30 22 19 18 18 19 18 16 15 16 15 16 21 18 13 13 13 12 14 17 17 21 24
51 36 30 33 39 52 70 82 83 87 93 92 92 92 90 89 86 82 76 73 73 66 54 56 60 59 60 57 52 48 46 46 36 32 38 42 47 48 50 63 77 78 75 71 64 65 69 73 80 82 81 83 84 83 78 74 70 64 61 63 62 62 58 43 35 33 24 19 18 19 19 17 16 15 16 15 13 15 14 11 10 10 10 11 14 16 19 22
60 45 34 35 41 54 68 80 85 88 92 94 93 91 92 93 91 89 85 78 77 70 57 58 62 60 61 58 52 49 47 45 36 32 38 43 48 51 51 61 76 80 77 73 66 66 69 72 80 83 83 84 86 87 84 81 76 68 62 61 61 62 58 44 36 35 27 19 18 18 18 17 16 15 15 15 12 12 12 11 10 10 11 12 13 16 18 20
66 53 39 38 43 56 67 74 83 86 90 96 95 93 91 91 94 95 90 83 80 74 61 59 66 62 60 59 54 51 47 43 39 35 38 44 48 52 53 58 72 81 79 74 67 66 69 73 79 83 85 86 84 86 87 85 80 71 66 62 61 61 58 46 37 36 30 20 18 17 17 17 16 15 15 14 12 13 12 11 10 9 11 13 14 16 16 16
71 60 43 38 41 55 66 67 78 84 87 94 95 94 92 92 94 92 90 88 83 80 69 62 69 67 62 59 54 54 49 45 44 39 40 46 50 53 54 55 67 81 82 76 70 67 68 72 78 82 87 88 83 84 86 85 80 72 68 65 61 61 58 47 38 38 34 24 18 17 17 17 16 15 14 13 12 12 13 12 10 9 11 12 13 15 16 16
76 64 45 39 38 50 65 67 74 80 83 89 93 95 94 95 95 89 92 94 89 86 77 67 69 73 69 60 56 55 48 45 47 44 43 47 50 52 53 53 61 78 84 77 72 68 66 69 75 79 85 88 85 84 85 85 82 73 69 66 62 61 58 48 39 38 37 29 20 18 18 17 16 15 13 12 12 12 13 12 11 10 10 12 12 14 16 16
76 64 47 42 37 41 60 68 72 78 82 86 89 95 96 97 96 92 94 95 95 92 84 73 67 75 77 65 58 53 47 47 47 47 47 47 50 51 53 53 55 70 80 76 72 69 66 68 71 75 81 86 87 86 85 85 83 77 72 69 65 62 59 50 41 39 39 34 24 19 18 17 15 15 13 12 11 11 12 12 12 11 10 11 12 13 15 16
77 66 49 44 40 39 53 66 74 78 81 83 85 92 96 95 93 93 94 92 94 95 89 78 68 75 80 70 60 49 47 50 48 49 50 48 51 52 55 55 53 61 70 70 70 68 68 69 69 71 76 81 86 87 86 84 82 80 76 73 69 64 62 54 43 40 41 38 29 21 18 16 15 14 13 12 11 11 11 12 12 11 11 11 12 14 15 17
75 67 52 46 42 41 47 59 74 77 75 81 85 89 91 91 90 94 95 90 91 93 91 85 70 70 81 77 65 53 51 52 49 50 53 52 52 53 56 58 57 58 62 67 70 69 68 68 68 70 71 74 81 85 85 84 83 81 77 75 73 69 66 58 45 41 41 40 35 26 19 16 15 14 13 12 11 11 11 12 12 12 11 11 13 15 15 17
68 64 56 50 44 44 45 52 71 75 71 79 85 88 89 90 90 95 98 93 88 87 88 89 75 68 80 82 71 63 61 55 50 52 54 55 55 54 56 60 63 62 63 67 70 69 67 65 67 70 70 71 76 77 78 82 84 83 78 75 75 74 70 60 48 42 42 43 40 34 25 18 15 14 14 13 12 11 11 12 12 12 11 11 13 14 15 16
62 59 56 52 45 44 46 50 63 71 72 77 83 89 91 88 88 93 100 98 89 84 85 90 81 69 76 83 77 72 70 62 53 53 55 55 56 55 56 61 65 66 67 68 69 69 65 63 68 71 70 72 73 73 77 83 86 85 81 78 78 78 74 63 51 43 43 45 43 39 31 19 14 15 14 13 12 12 11 11 11 12 11 11 12 14 15 15
60 58 55 51 45 43 49 52 57 67 73 77 79 86 91 87 86 91 99 103 94 86 85 91 89 78 78 85 83 79 77 70 57 53 55 55 57 57 58 62 65 66 68 68 69 66 63 63 66 70 71 71 71 74 81 85 87 88 86 85 82 79 75 66 56 45 41 45 44 42 36 21 14 16 14 13 14 13 12 11 11 11 11 11 12 13 13 14
61 59 53 48 44 42 51 57 56 63 73 80 78 80 89 88 88 94 98 102 98 90 90 96 97 88 82 81 84 87 84 75 61 53 54 56 59 61 61 63 64 65 66 68 68 64 62 62 64 68 71 72 73 76 81 82 86 90 89 88 84 80 76 68 59 49 41 43 44 43 39 26 16 16 15 13 14 14 14 12 10 11 11 11 12 11 12 13
62 59 50 47 46 43 52 60 58 61 70 79 78 76 87 89 90 95 96 99 101 95 91 92 93 91 89 83 84 91 87 77 66 56 54 57 62 65 65 65 66 66 68 71 70 64 62 62 66 73 74 75 75 75 80 82 84 88 87 86 83 78 77 70 61 52 43 41 43 44 42 31 19 17 16 14 14 16 17 15 13 12 11 11 11 11 12 12
62 61 52 48 49 46 52 59 60 64 69 75 76 75 83 90 92 93 94 99 102 100 95 92 95 99 96 85 80 85 83 77 72 61 56 59 63 66 68 70 70 70 72 74 71 64 61 65 73 78 78 78 74 72 79 81 79 82 83 84 83 78 76 72 62 55 47 41 41 43 43 36 23 18 18 14 14 15 17 18 15 14 13 13 13 12 12 12
61 62 56 51 51 49 51 55 58 64 71 75 78 77 82 90 93 91 92 98 100 97 97 96 96 92 79 67 71 83 84 81 78 70 61 60 62 65 69 73 74 76 76 73 71 67 62 68 77 79 78 77 73 72 76 76 74 75 76 79 81 78 76 73 65 58 52 43 41 40 42 40 26 19 19 16 15 14 15 17 16 14 15 15 14 13 12 12
63 63 60 54 51 50 50 52 55 63 72 76 80 84 90 96 98 95 91 94 96 90 86 84 80 75 66 63 70 82 88 88 86 80 68 62 62 64 70 75 77 80 79 74 73 71 66 70 75 75 75 75 72 73 73 71 70 69 70 75 79 80 77 75 68 62 55 47 42 39 40 42 30 20 20 18 15 15 14 15 15 14 14 14 14 12 11 11
60 62 63 58 52 52 52 52 54 65 74 77 82 87 93 95 94 94 90 92 96 93 88 83 78 76 72 68 67 74 89 93 90 87 76 67 65 66 70 73 75 78 76 75 76 75 72 70 68 67 68 71 72 70 68 67 67 67 71 76 81 82 78 77 72 65 60 50 46 43 40 42 34 22 21 21 17 16 15 14 14 13 12 12 12 11 10 10
53 56 61 59 54 54 55 54 55 64 74 78 83 89 90 89 87 89 91 93 97 98 95 91 90 88 79 75 72 74 89 95 93 92 82 71 69 68 69 68 69 70 70 74 77 77 77 71 66 67 67 70 72 68 67 67 66 69 73 78 84 83 79 76 71 69 66 58 52 48 41 41 38 26 22 23 20 16 14 14 13 13 12 11 11 10 10 10
49 49 55 57 54 55 56 56 57 62 71 75 79 85 88 87 87 92 96 96 97 99 98 95 94 92 86 85 81 75 84 90 90 91 85 76 72 70 69 67 67 71 72 74 76 76 76 71 69 72 70 71 72 70 68 67 67 69 72 77 83 83 78 73 69 67 68 65 59 54 45 40 39 33 27 24 21 17 15 14 14 13 12 11 11 11 10 10
43 43 51 54 53 53 53 55 57 59 66 72 74 80 86 88 87 90 95 96 96 98 99 95 93 94 88 83 80 76 79 84 84 84 83 78 75 74 74 69 69 78 79 75 74 75 74 72 72 74 71 71 73 73 71 68 68 69 69 74 80 81 76 70 68 65 64 66 64 58 51 43 40 38 32 27 24 21 17 15 15 14 13 12 11 11 11 9
39 40 47 52 51 50 50 52 54 57 64 71 73 77 89 94 90 88 93 97 97 98 100 97 96 98 92 87 87 82 78 85 87 84 83 80 73 71 75 73 73 81 81 76 77 77 76 76 77 75 72 71 71 72 71 69 70 69 68 72 78 81 76 67 65 65 63 65 65 61 56 49 44 41 36 32 29 25 21 18 16 15 14 13 12 11 10 10
37 37 40 46 49 48 48 47 50 56 62 68 71 76 87 96 95 89 93 99 98 98 99 98 97 98 95 96 96 88 84 91 94 91 90 87 77 69 71 74 75 80 79 77 80 79 78 79 77 73 70 68 67 67 66 66 71 71 67 70 75 78 78 69 62 62 65 64 61 60 56 51 47 42 37 36 34 30 26 22 18 16 16 14 13 11 10 10
33 34 33 38 44 46 45 46 48 51 56 64 70 76 83 92 96 93 96 101 98 95 98 98 97 95 94 97 93 88 87 86 91 98 95 92 87 77 73 71 71 75 75 76 81 77 74 76 74 68 67 67 64 63 61 63 71 72 64 65 68 69 72 70 62 62 65 62 58 57 55 53 47 41 40 38 35 33 30 26 20 18 17 15 13 12 10 10
31 32 31 33 39 43 45 46 47 48 55 64 71 77 82 88 95 95 99 101 93 92 96 96 96 94 95 96 91 86 79 69 80 97 96 93 91 83 79 74 68 68 68 71 74 69 64 66 66 61 61 62 58 56 59 62 68 68 64 64 62 62 65 66 64 62 62 61 58 55 54 53 47 43 46 42 34 34 32 27 22 19 17 15 14 13 12 11
29 30 32 33 36 40 44 46 48 53 59 66 73 78 81 89 95 97 100 97 89 91 96 95 97 97 97 98 94 89 82 73 78 91 95 94 90 83 80 79 75 71 68 69 70 67 61 58 58 57 56 54 53 55 60 64 66 64 66 65 60 59 61 64 64 60 59 59 55 54 55 52 47 44 47 45 37 34 32 28 23 18 17 15 14 13 13 13
31 29 31 33 35 37 40 43 45 50 59 67 74 77 83 94 97 98 101 93 88 94 97 97 97 98 99 99 99 94 88 84 80 85 94 94 89 85 80 79 80 78 74 72 71 69 61 56 57 58 55 53 55 61 64 67 67 65 66 65 60 60 61 65 65 58 59 57 49 52 56 53 50 43 40 43 41 36 33 28 23 18 16 15 14 14 13 13
33 30 29 32 34 32 35 42 42 44 56 70 76 79 89 98 98 99 97 87 89 96 97 97 97 98 99 97 98 96 91 89 84 83 91 94 93 90 87 86 86 86 85 77 71 68 62 59 59 56 55 55 59 66 70 70 68 67 67 63 61 62 62 65 66 59 60 58 47 51 58 56 51 42 36 39 42 40 35 29 23 19 16 14 14 14 14 14
36 33 30 29 32 31 32 42 44 41 51 68 80 87 94 99 99 98 93 88 94 97 96 98 98 98 99 94 94 93 88 88 86 81 82 89 95 91 87 86 82 84 88 79 70 68 65 62 59 56 56 57 60 69 75 74 72 74 71 64 64 69 70 70 66 62 61 55 46 49 57 55 47 39 36 37 40 42 38 30 24 20 17 15 14 14 14 14
36 36 34 29 29 32 33 39 46 45 47 63 83 93 97 100 99 94 93 96 96 91 92 97 97 96 97 97 98 94 89 87 84 79 77 83 92 91 87 84 76 73 74 73 71 70 69 66 61 59 58 57 59 65 70 70 71 72 69 66 67 73 78 76 69 66 63 53 47 49 52 50 44 39 38 36 37 41 39 32 25 21 19 16 14 14 14 14
33 33 36 32 29 32 32 36 47 53 51 61 83 97 99 100 97 91 93 98 95 91 91 94 97 97 95 96 97 92 93 93 86 81 82 87 94 95 90 85 78 70 65 67 69 66 67 67 60 58 57 56 57 60 62 63 65 66 65 66 65 65 69 70 65 62 58 51 47 48 48 44 40 39 37 36 36 37 39 36 27 21 18 17 15 14 13 13
32 32 34 35 33 31 29 34 47 58 62 68 84 99 99 93 92 92 94 94 93 95 95 94 96 99 98 98 96 90 90 92 87 83 83 85 88 86 81 77 74 69 63 65 67 63 61 58 52 53 54 53 56 59 59 62 68 70 69 68 65 61 62 62 60 55 52 50 48 45 43 39 37 38 36 36 37 36 37 38 33 24 17 16 16 14 13 14
36 37 34 35 35 30 27 33 45 58 70 78 87 98 98 92 90 91 90 90 88 90 96 98 98 100 100 99 99 94 90 88 86 85 83 81 80 77 72 69 69 65 59 58 62 62 62 58 52 53 55 54 57 60 59 62 68 71 69 65 61 61 61 58 58 55 52 54 49 42 38 35 35 37 35 35 36 35 35 36 37 31 21 17 17 15 14 15
42 42 39 36 35 31 27 31 43 57 73 88 94 95 95 95 93 89 85 87 88 88 91 95 98 100 99 99 100 97 93 91 89 87 85 84 82 76 69 65 61 58 53 50 54 55 58 61 55 52 57 57 55 59 62 63 65 67 66 61 59 64 63 57 58 57 54 56 52 42 37 34 35 36 35 35 34 33 34 34 36 35 28 22 17 15 15 16
44 44 45 40 33 32 30 29 41 59 76 92 96 92 92 94 94 92 87 87 90 91 92 92 95 98 98 96 97 92 88 90 90 87 85 82 78 71 66 61 57 55 52 50 52 50 51 60 60 53 57 60 59 62 66 65 62 61 60 57 61 66 60 55 57 57 56 56 52 45 38 34 34 34 33 33 33 33 32 32 33 33 32 27 20 16 16 16
45 45 45 39 31 32 32 29 41 62 79 89 91 90 92 93 93 94 92 87 87 90 92 90 89 94 94 90 89 85 81 82 83 82 78 74 69 63 60 59 57 56 56 53 54 52 50 60 65 58 57 62 65 66 67 64 60 59 57 57 61 62 57 56 56 54 54 53 52 50 42 34 32 32 32 33 34 33 31 31 31 31 31 30 24 20 17 16
46 46 42 36 34 34 33 35 45 63 77 80 78 84 91 92 91 93 94 90 87 88 89 87 85 89 91 90 88 85 82 80 78 77 72 66 63 61 58 58 58 58 60 59 58 57 55 58 64 64 63 66 66 62 60 59 56 56 57 57 59 57 56 58 56 51 51 53 54 53 46 36 32 32 32 33 35 35 33 32 30 29 30 30 27 23 19 17
49 51 42 36 39 39 39 46 52 61 73 73 70 78 88 91 89 91 95 93 90 88 86 85 85 86 87 89 90 87 84 83 79 77 73 66 62 61 57 55 57 58 60 62 62 62 61 58 61 66 66 64 60 56 57 59 56 56 60 60 60 59 57 60 59 52 49 52 54 51 44 35 30 31 30 32 36 35 35 35 32 29 29 30 29 26 22 19
53 53 41 36 43 45 48 54 53 57 68 69 68 74 83 89 87 86 91 93 94 92 88 85 87 88 85 83 84 84 83 80 75 73 73 66 60 58 54 52 56 57 59 63 64 65 66 62 64 70 68 62 60 59 62 63 59 60 62 59 61 62 56 56 57 52 49 51 50 49 44 32 28 32 32 33 37 36 33 34 33 30 29 30 31 28 25 22
52 52 44 42 47 49 53 57 53 56 64 62 62 68 77 86 86 86 91 92 94 95 90 87 88 88 86 83 83 83 81 79 76 72 72 69 62 58 54 52 56 59 61 63 64 65 67 65 67 71 68 63 63 62 62 63 61 60 58 55 56 57 53 54 56 54 52 49 45 49 48 33 28 36 38 34 36 34 31 31 31 30 29 31 31 29 28 25
52 56 55 51 51 55 58 55 52 58 64 61 63 70 79 86 85 90 96 93 91 94 90 86 86 84 84 83 81 78 78 80 80 76 73 70 64 60 57 55 56 58 56 55 57 62 67 66 66 71 74 72 71 68 64 62 60 58 56 55 53 52 53 57 57 56 54 48 45 51 48 34 30 36 38 36 34 33 31 30 30 31 30 31 32 31 30 27
65 70 68 61 60 61 55 44 41 50 61 66 69 74 82 89 86 89 96 92 88 89 89 86 86 84 84 84 83 82 80 79 79 77 75 71 67 64 61 57 55 53 52 53 54 59 65 64 62 67 72 71 68 64 57 54 57 60 61 60 58 57 57 58 61 63 56 47 46 46 39 33 31 31 31 33 33 31 30 29 29 30 31 32 32 31 31 29
82 83 77 73 72 64 49 36 34 42 54 64 68 71 80 88 87 88 94 94 90 89 90 89 88 89 88 88 89 88 83 81 79 77 75 73 70 66 62 59 56 54 54 56 57 61 64 61 56 55 54 52 51 49 45 49 58 63 64 65 66 66 63 62 66 62 50 45 47 40 33 33 31 28 30 34 35 35 34 32 31 32 33 33 32 30 29 28
95 89 80 79 79 69 53 42 39 41 48 56 61 67 76 82 84 88 93 94 92 89 88 88 87 88 88 86 87 88 83 82 81 77 75 75 73 70 67 65 63 59 57 58 57 58 60 58 53 49 48 48 51 50 49 52 55 55 58 62 65 66 65 64 61 51 46 50 48 38 36 36 31 32 37 38 38 39 36 35 35 37 37 35 33 31 29 27
97 85 74 69 69 66 58 48 41 43 49 54 59 65 74 79 83 88 92 94 94 89 86 89 87 84 83 79 80 85 85 84 85 81 76 75 74 73 72 71 67 61 59 60 56 52 53 52 47 46 49 52 56 54 51 51 51 51 53 55 58 62 64 62 55 47 50 53 44 39 41 38 34 36 37 37 39 38 34 34 36 37 38 37 36 35 33 30
92 82 74 69 61 53 48 41 38 44 52 59 67 74 77 79 80 84 88 91 93 91 86 85 83 81 83 81 79 84 84 80 80 76 69 68 69 70 70 69 65 61 59 59 55 51 51 49 47 48 50 54 58 56 52 51 52 52 53 52 54 56 56 53 48 47 53 52 44 43 45 40 38 38 35 37 40 38 37 38 38 39 38 36 35 34 34 34
84 77 74 76 68 49 37 33 35 44 54 62 74 81 80 79 81 85 89 85 86 89 83 78 77 78 81 81 77 75 70 62 63 62 58 62 66 66 66 65 62 61 61 61 59 56 54 53 52 54 56 59 61 58 55 53 53 57 60 57 52 50 49 48 46 50 57 52 44 47 49 42 38 37 37 39 42 42 43 44 44 46 44 39 36 34 34 35
70 68 64 67 68 53 38 34 34 43 59 67 76 83 81 81 85 89 88 79 75 77 73 70 74 78 80 80 75 68 64 63 64 62 57 59 61 61 62 62 61 61 61 63 63 62 63 61 57 59 63 61 59 58 57 54 58 66 65 55 48 47 48 49 48 50 52 48 46 52 50 39 35 39 41 43 45 46 48 48 48 50 48 43 39 37 36 35
67 72 60 54 62 55 41 38 38 45 58 62 67 76 76 77 86 90 86 79 74 73 73 75 79 80 78 75 71 67 68 69 68 64 62 62 60 59 58 57 55 55 58 61 65 67 67 63 60 63 63 59 58 59 56 59 68 68 53 44 47 50 50 50 49 47 45 45 48 49 42 34 37 42 43 44 47 48 49 49 50 50 50 46 42 39 37 35